EIN38W EGLL-EINN

Flight info

Callsign EIN38W
Flight time 0h 57m
Altitude 34000
Route CPT L9 BUCGO DCT FELCA DCT OFSOX DCT SLANY DCT TIPUR TIPUR2E
Aircraft A20N/M-SDE2E3FGHIJ1RWXY/LB1

Departure

Time 2026-04-30 13:19
Airport London Heathrow Airport (EGLL)

Arrival

Time 2026-04-30 14:17
Airport Shannon Airport (EINN)
Time Latitude Longitude Altitude Speed Heading
2026-04-30 13:04 51.46828 -0.44918 98 ft 0 kts 354°
2026-04-30 13:08 51.46817 -0.44916 97 ft 2 kts 354°
2026-04-30 13:08 51.46803 -0.44914 97 ft 2 kts 354°
2026-04-30 13:08 51.46790 -0.44912 96 ft 2 kts 354°
2026-04-30 13:09 51.46780 -0.44911 96 ft 2 kts 352°
2026-04-30 13:09 51.46766 -0.44903 95 ft 2 kts 322°
2026-04-30 13:09 51.46756 -0.44886 95 ft 2 kts 300°
2026-04-30 13:09 51.46751 -0.44865 95 ft 2 kts 277°
2026-04-30 13:10 51.46750 -0.44853 95 ft 1 kts 263°
2026-04-30 13:10 51.46751 -0.44846 95 ft 0 kts 269°
2026-04-30 13:13 51.46751 -0.44863 95 ft 3 kts 270°
2026-04-30 13:13 51.46751 -0.45015 96 ft 9 kts 270°
2026-04-30 13:14 51.46751 -0.45138 96 ft 13 kts 269°
2026-04-30 13:14 51.46750 -0.45305 94 ft 18 kts 269°
2026-04-30 13:14 51.46749 -0.45777 87 ft 24 kts 269°
2026-04-30 13:15 51.46748 -0.46038 85 ft 24 kts 269°
2026-04-30 13:15 51.46747 -0.46574 80 ft 25 kts 271°
2026-04-30 13:15 51.46747 -0.46849 79 ft 25 kts 269°
2026-04-30 13:16 51.46748 -0.47120 80 ft 24 kts 270°
2026-04-30 13:16 51.46743 -0.47313 81 ft 13 kts 243°
2026-04-30 13:16 51.46677 -0.47353 79 ft 10 kts 200°
2026-04-30 13:17 51.46643 -0.47480 82 ft 3 kts 231°
2026-04-30 13:17 51.46633 -0.47492 82 ft 0 kts 213°
2026-04-30 13:17 51.46571 -0.47495 82 ft 15 kts 178°
2026-04-30 13:18 51.46497 -0.47492 82 ft 6 kts 168°
2026-04-30 13:18 51.46481 -0.47426 81 ft 2 kts 88°
2026-04-30 13:18 51.46482 -0.47381 80 ft 9 kts 88°
2026-04-30 13:19 51.46482 -0.46903 79 ft 81 kts 90°
2026-04-30 13:19 51.46491 -0.45730 85 ft 140 kts 90°
2026-04-30 13:19 51.46481 -0.44132 471 ft 156 kts 90°
2026-04-30 13:19 51.46501 -0.42487 1250 ft 152 kts 92°
2026-04-30 13:20 51.46217 -0.41039 2014 ft 149 kts 124°
2026-04-30 13:20 51.45354 -0.40070 2535 ft 171 kts 158°
2026-04-30 13:20 51.44136 -0.40197 2975 ft 196 kts 196°
2026-04-30 13:20 51.43091 -0.41702 3240 ft 235 kts 226°
2026-04-30 13:21 51.42176 -0.43863 3728 ft 254 kts 231°
2026-04-30 13:21 51.41254 -0.46171 4266 ft 270 kts 232°
2026-04-30 13:21 51.40491 -0.48874 4922 ft 288 kts 254°
2026-04-30 13:22 51.40931 -0.55007 6743 ft 297 kts 283°
2026-04-30 13:22 51.41484 -0.58077 7597 ft 301 kts 286°
2026-04-30 13:22 51.42981 -0.64338 9291 ft 310 kts 290°
2026-04-30 13:23 51.43776 -0.67522 10133 ft 313 kts 289°
2026-04-30 13:23 51.45351 -0.73986 11318 ft 337 kts 289°
2026-04-30 13:24 51.47094 -0.81279 12241 ft 369 kts 289°
2026-04-30 13:24 51.48893 -0.88855 13768 ft 377 kts 289°
2026-04-30 13:25 51.50735 -0.96635 15258 ft 385 kts 289°
2026-04-30 13:25 51.52625 -1.04654 16689 ft 393 kts 288°
2026-04-30 13:26 51.55469 -1.16798 18709 ft 404 kts 288°
2026-04-30 13:26 51.57435 -1.25237 19953 ft 413 kts 288°
2026-04-30 13:27 51.59399 -1.33698 21138 ft 421 kts 288°
2026-04-30 13:28 51.63040 -1.46537 22830 ft 437 kts 296°
2026-04-30 13:28 51.65861 -1.54893 23901 ft 444 kts 297°
2026-04-30 13:28 51.67315 -1.59233 24428 ft 448 kts 296°
2026-04-30 13:29 51.69888 -1.67824 25411 ft 452 kts 286°
2026-04-30 13:29 51.71149 -1.77229 26383 ft 450 kts 272°
2026-04-30 13:30 51.72119 -1.92081 27712 ft 458 kts 272°
2026-04-30 13:31 51.72810 -2.01995 28536 ft 463 kts 272°
2026-04-30 13:31 51.73857 -2.16919 30297 ft 456 kts 272°
2026-04-30 13:32 51.74532 -2.26752 31319 ft 453 kts 272°
2026-04-30 13:32 51.75195 -2.36536 32290 ft 450 kts 272°
2026-04-30 13:33 51.75858 -2.46436 33141 ft 449 kts 272°
2026-04-30 13:33 51.76507 -2.56288 33754 ft 452 kts 273°
2026-04-30 13:34 51.76829 -2.61201 34070 ft 453 kts 273°
2026-04-30 13:35 51.78079 -2.80622 34141 ft 453 kts 272°
2026-04-30 13:36 51.79311 -3.00242 34138 ft 453 kts 272°
2026-04-30 13:36 51.80218 -3.15042 34134 ft 452 kts 272°
2026-04-30 13:37 51.81107 -3.29844 34133 ft 451 kts 272°
2026-04-30 13:38 51.81981 -3.44716 34126 ft 451 kts 272°
2026-04-30 13:39 51.83822 -3.64257 34109 ft 452 kts 279°
2026-04-30 13:40 51.85698 -3.78597 34100 ft 451 kts 278°
2026-04-30 13:40 51.86908 -3.88007 34092 ft 451 kts 278°
2026-04-30 13:41 51.88138 -3.97663 34089 ft 450 kts 278°
2026-04-30 13:41 51.89358 -4.07312 34087 ft 451 kts 278°
2026-04-30 13:42 51.90575 -4.17021 34085 ft 452 kts 278°
2026-04-30 13:42 51.92377 -4.31513 34081 ft 452 kts 278°
2026-04-30 13:43 51.93578 -4.41258 34081 ft 452 kts 278°
2026-04-30 13:43 51.94761 -4.50928 34079 ft 452 kts 278°
2026-04-30 13:44 51.95934 -4.60591 34079 ft 453 kts 278°
2026-04-30 13:44 51.97093 -4.70196 34070 ft 454 kts 277°
2026-04-30 13:45 51.98852 -4.84924 34067 ft 455 kts 276°
2026-04-30 13:46 51.99995 -4.94588 34043 ft 455 kts 276°
2026-04-30 13:46 52.01141 -5.04349 34039 ft 454 kts 276°
2026-04-30 13:47 52.02266 -5.14000 34056 ft 455 kts 277°
2026-04-30 13:47 52.03736 -5.23732 34060 ft 459 kts 283°
2026-04-30 13:48 52.05649 -5.33268 34062 ft 459 kts 285°
2026-04-30 13:48 52.07616 -5.42905 34066 ft 460 kts 284°
2026-04-30 13:49 52.09552 -5.52515 34063 ft 459 kts 284°
2026-04-30 13:49 52.11449 -5.62007 34056 ft 461 kts 284°
2026-04-30 13:50 52.13333 -5.71493 34058 ft 460 kts 283°
2026-04-30 13:50 52.16157 -5.85804 34066 ft 460 kts 283°
2026-04-30 13:51 52.18079 -5.95456 34065 ft 461 kts 283°
2026-04-30 13:51 52.20003 -6.05132 34068 ft 461 kts 284°
2026-04-30 13:52 52.21915 -6.14797 34070 ft 461 kts 283°
2026-04-30 13:52 52.23832 -6.24560 34071 ft 461 kts 283°
2026-04-30 13:53 52.25728 -6.34258 34079 ft 461 kts 283°
2026-04-30 13:53 52.27645 -6.44106 33819 ft 461 kts 283°
2026-04-30 13:54 52.28584 -6.48948 33545 ft 459 kts 283°
2026-04-30 13:54 52.29537 -6.53872 33171 ft 457 kts 284°
2026-04-30 13:54 52.30479 -6.58759 32672 ft 455 kts 283°
2026-04-30 13:54 52.31415 -6.63622 32075 ft 454 kts 283°
2026-04-30 13:55 52.32332 -6.68407 31441 ft 454 kts 283°
2026-04-30 13:55 52.33270 -6.73303 30792 ft 454 kts 282°
2026-04-30 13:55 52.34193 -6.78138 30114 ft 455 kts 282°
2026-04-30 13:55 52.35127 -6.83055 29404 ft 456 kts 282°
2026-04-30 13:56 52.36039 -6.87865 28709 ft 457 kts 282°
2026-04-30 13:56 52.36970 -6.92783 27985 ft 458 kts 283°
2026-04-30 13:56 52.37905 -6.97744 27397 ft 456 kts 283°
2026-04-30 13:56 52.38840 -7.02696 26920 ft 453 kts 283°
2026-04-30 13:57 52.39750 -7.07532 26425 ft 449 kts 283°
2026-04-30 13:57 52.40631 -7.12221 25941 ft 446 kts 283°
2026-04-30 13:57 52.41532 -7.17029 25448 ft 442 kts 283°
2026-04-30 13:57 52.42419 -7.21791 24954 ft 439 kts 283°
2026-04-30 13:58 52.43285 -7.26444 24477 ft 435 kts 283°
2026-04-30 13:58 52.45017 -7.35787 23490 ft 430 kts 283°
2026-04-30 13:58 52.45873 -7.40416 23003 ft 428 kts 283°
2026-04-30 13:59 52.46712 -7.44971 22525 ft 426 kts 283°
2026-04-30 13:59 52.47557 -7.49570 22024 ft 425 kts 283°
2026-04-30 13:59 52.48397 -7.54155 21532 ft 423 kts 283°
2026-04-30 13:59 52.49227 -7.58694 21041 ft 421 kts 283°
2026-04-30 14:00 52.50048 -7.63193 20563 ft 419 kts 283°
2026-04-30 14:00 52.51687 -7.72214 19566 ft 416 kts 282°
2026-04-30 14:00 52.52497 -7.76685 19075 ft 414 kts 282°
2026-04-30 14:01 52.53285 -7.81050 18578 ft 412 kts 282°
2026-04-30 14:01 52.54081 -7.85475 18089 ft 410 kts 282°
2026-04-30 14:01 52.54883 -7.89948 17586 ft 409 kts 282°
2026-04-30 14:01 52.55672 -7.94347 17071 ft 407 kts 282°
2026-04-30 14:02 52.56467 -7.98790 16592 ft 404 kts 282°
2026-04-30 14:02 52.57243 -8.03154 16102 ft 402 kts 282°
2026-04-30 14:02 52.58007 -8.07445 15627 ft 399 kts 281°
2026-04-30 14:02 52.58559 -8.11806 15143 ft 391 kts 270°
2026-04-30 14:03 52.58532 -8.16146 14675 ft 380 kts 257°
2026-04-30 14:03 52.58085 -8.20369 14210 ft 374 kts 253°
2026-04-30 14:03 52.57560 -8.24502 13745 ft 370 kts 252°
2026-04-30 14:03 52.57040 -8.28547 13275 ft 368 kts 252°
2026-04-30 14:04 52.56524 -8.32630 12801 ft 365 kts 254°
2026-04-30 14:04 52.56025 -8.36669 12333 ft 362 kts 253°
2026-04-30 14:04 52.55529 -8.40714 11863 ft 360 kts 253°
2026-04-30 14:04 52.55038 -8.44720 11393 ft 357 kts 253°
2026-04-30 14:05 52.54556 -8.48650 10930 ft 354 kts 254°
2026-04-30 14:05 52.54078 -8.52568 10580 ft 347 kts 254°
2026-04-30 14:05 52.53620 -8.56354 10422 ft 334 kts 253°
2026-04-30 14:05 52.53179 -8.59994 10279 ft 320 kts 254°
2026-04-30 14:06 52.52747 -8.63524 10133 ft 308 kts 253°
2026-04-30 14:06 52.51923 -8.70197 9598 ft 297 kts 252°
2026-04-30 14:07 52.51100 -8.76760 8903 ft 291 kts 253°
2026-04-30 14:07 52.50702 -8.79950 8568 ft 289 kts 253°
2026-04-30 14:07 52.50303 -8.83146 8238 ft 285 kts 253°
2026-04-30 14:08 52.49525 -8.89360 7611 ft 278 kts 253°
2026-04-30 14:08 52.49139 -8.92443 7297 ft 275 kts 253°
2026-04-30 14:08 52.48375 -8.98507 6683 ft 269 kts 254°
2026-04-30 14:09 52.48004 -9.01441 6388 ft 265 kts 255°
2026-04-30 14:09 52.47633 -9.04381 6175 ft 258 kts 255°
2026-04-30 14:09 52.47155 -9.09922 6039 ft 240 kts 280°
2026-04-30 14:10 52.47904 -9.12344 5783 ft 250 kts 315°
2026-04-30 14:10 52.49279 -9.14148 5198 ft 262 kts 325°
2026-04-30 14:10 52.50777 -9.15894 4669 ft 270 kts 325°
2026-04-30 14:10 52.52310 -9.17733 4172 ft 275 kts 324°
2026-04-30 14:11 52.53841 -9.19636 3689 ft 279 kts 324°
2026-04-30 14:11 52.55528 -9.21224 3163 ft 280 kts 348°
2026-04-30 14:11 52.57367 -9.21129 2938 ft 260 kts 26°
2026-04-30 14:11 52.58682 -9.19440 2929 ft 228 kts 64°
2026-04-30 14:12 52.59293 -9.17226 2935 ft 201 kts 74°
2026-04-30 14:12 52.59805 -9.15193 2925 ft 187 kts 68°
2026-04-30 14:12 52.60459 -9.13317 2871 ft 189 kts 62°
2026-04-30 14:12 52.60956 -9.12151 2729 ft 190 kts 59°
2026-04-30 14:13 52.62014 -9.09922 2477 ft 181 kts 58°
2026-04-30 14:13 52.62771 -9.08344 2211 ft 174 kts 58°
2026-04-30 14:13 52.63494 -9.06813 1942 ft 162 kts 58°
2026-04-30 14:13 52.64148 -9.05416 1728 ft 149 kts 59°
2026-04-30 14:14 52.64741 -9.04148 1529 ft 135 kts 59°
2026-04-30 14:14 52.65290 -9.02972 1333 ft 127 kts 59°
2026-04-30 14:14 52.65821 -9.01827 1183 ft 127 kts 59°
2026-04-30 14:14 52.66349 -9.00695 1027 ft 126 kts 58°
2026-04-30 14:15 52.66877 -8.99569 868 ft 126 kts 58°
2026-04-30 14:15 52.67407 -8.98438 700 ft 126 kts 57°
2026-04-30 14:15 52.67943 -8.97296 527 ft 126 kts 57°
2026-04-30 14:15 52.68473 -8.96168 357 ft 126 kts 56°
2026-04-30 14:16 52.69015 -8.95034 203 ft 125 kts 56°
2026-04-30 14:16 52.69540 -8.93886 47 ft 122 kts 57°
2026-04-30 14:16 52.69974 -8.92951 17 ft 79 kts 50°
2026-04-30 14:16 52.70235 -8.92403 15 ft 53 kts 54°
2026-04-30 14:17 52.70451 -8.91934 13 ft 48 kts 52°
2026-04-30 14:17 52.70638 -8.91537 14 ft 29 kts 52°
2026-04-30 14:17 52.70748 -8.91303 14 ft 12 kts 54°
2026-04-30 14:17 52.70736 -8.91191 13 ft 13 kts 149°
2026-04-30 14:18 52.70638 -8.91144 10 ft 15 kts 167°
2026-04-30 14:18 52.70531 -8.91105 8 ft 17 kts 168°
2026-04-30 14:18 52.70284 -8.91029 8 ft 18 kts 170°
2026-04-30 14:19 52.70039 -8.91093 8 ft 18 kts 201°
2026-04-30 14:19 52.69917 -8.91162 8 ft 18 kts 198°
2026-04-30 14:19 52.69792 -8.91231 8 ft 18 kts 199°
2026-04-30 14:20 52.69669 -8.91301 8 ft 19 kts 198°
2026-04-30 14:20 52.69542 -8.91369 8 ft 19 kts 197°
2026-04-30 14:20 52.69296 -8.91499 11 ft 16 kts 198°
2026-04-30 14:21 52.69253 -8.91591 11 ft 10 kts 293°
2026-04-30 14:21 52.69303 -8.91695 12 ft 11 kts 310°
2026-04-30 14:21 52.69413 -8.91793 12 ft 6 kts 320°
2026-04-30 14:22 52.69435 -8.91857 13 ft 6 kts 285°
2026-04-30 14:22 52.69418 -8.91951 14 ft 5 kts 181°
2026-04-30 14:22 52.69375 -8.91954 14 ft 4 kts 184°
2026-04-30 14:23 52.69360 -8.91956 14 ft 0 kts 183°